sat.trackr.live / text

‹ back to catalog

2024-153F

NORAD 60750 · 2024-153F

PAYLOAD ACTIVE UNKNOWN

§ Identity

Operator
Country
PRC
Launch date
2024-08-29
Launch site
YSLA
Launch vehicle
Mass (kg)
RCS (m²)

External: N2YO · Heavens-Above · Gunter

§ Orbital elements

Epoch: 2026-05-25T04:24:10.970784Z

Period
94.41 min
Inclination
97.6683°
Eccentricity
0.0004650
Mean motion
15.25258075 rev/d
Perigee alt
486.8 km
Apogee alt
493.2 km
Semi-major
6,868.1 km
B*
5.5151e-4
RAAN
281.1808°
Arg perigee
341.0834°
Mean anomaly
19.0230°
Rev number
9,629

§ Raw data

2024-153F1 60750U 24153F   26145.18346031  .00013810  00000+0  55151-3 0  99992 60750  97.6683 281.1808 0004650 341.0834  19.0230 15.25258075 96296

JSON: /api/v1/satellites/60750 · /tle

For live sub-satellite position, see the globe view (requires WebGL).

§ Visibility from observer

Set your observer location to see the next 7 days of passes ≥ 10°. The values pass through the URL so the page stays shareable.

No JS? Fill the form by hand. The geolocation button needs JavaScript.